CYMU

Umiujaq Airport

ICAO Code CYMU
IATA Code YUD
Name Umiujaq Airport
Location Umiujaq, Quebec, CA
Elevation 251 Feet / 76.5 Meters
Latitude 56.53611111
Longitude -76.51833333
METAR CYMU 012100Z 30010KT 15SM OVC006 08/08 A2985 RMK ST8 CIG VRB 4-8/LASTOBS/NEXT 02 1200Z SLP114
Extra information Display Charts and CFS
Display NOTAMS
Runway Length Width Surface Elevation
02 3521 ft 100 ft GRAVEL 247 ft
20 3521 ft 100 ft GRAVEL 251 ft